Wind_Speed
15 14 15 18 17 17 18 18 18 17 16 15 15 14 14 13 13 14 13 12 12 11 11 9 9 7 4 2 1 2 2 2 1 2 3 5 5 5 5 5 4 3 5
16 16 17 18 16 17 18 18 17 16 15 14 14 14 14 15 15 15 14 13 13 11 10 9 9 9 6 3 2 2 2 2 1 2 3 6 7 8 9 9 7 6 1
14 15 16 17 17 18 19 18 17 16 15 13 12 13 14 15 16 16 14 13 12 10 9 9 9 9 8 6 4 2 1 1 2 1 3 5 7 9 10 9 7 7 5
11 11 14 16 18 19 20 19 18 17 15 14 12 12 12 13 15 15 14 13 11 9 8 8 9 8 7 6 4 3 3 3 2 2 3 4 5 6 7 7 7 6 8
8 8 9 11 14 17 18 18 18 17 16 14 12 10 10 12 13 14 13 12 10 9 8 7 7 6 5 5 4 2 3 4 4 5 6 6 5 6 6 8 8 7 8
4 5 7 8 8 11 14 15 15 15 14 14 14 12 11 10 10 11 11 10 10 9 8 7 7 5 4 3 3 3 3 4 4 6 7 7 7 7 7 8 9 9 9
1 2 5 9 10 10 11 12 12 11 11 11 12 12 10 10 9 9 9 9 10 9 7 6 6 5 3 2 1 3 3 4 5 6 6 6 8 8 9 10 11 11 9
5 5 4 6 8 10 10 10 9 9 8 8 8 8 7 7 7 6 7 7 9 9 8 5 4 4 4 3 2 4 5 5 6 6 6 6 8 10 12 12 13 13 13
6 6 7 8 9 10 11 11 10 8 7 7 7 6 6 4 4 5 6 7 8 9 8 6 4 4 4 4 4 4 5 5 6 6 6 7 8 11 13 13 12 10 14
10 9 8 10 11 12 12 12 13 12 10 8 8 8 7 6 6 7 8 8 9 9 8 5 4 3 5 6 5 5 6 6 6 7 7 7 7 8 10 10 11 15 13
12 10 9 9 11 11 13 14 14 14 14 13 12 11 11 11 10 9 9 10 10 9 8 6 6 6 7 8 7 7 8 8 9 9 9 8 8 9 10 10 14 16 15
14 13 11 9 12 14 13 13 14 15 15 16 15 14 12 13 13 11 11 11 11 10 10 9 9 9 9 10 10 10 9 10 11 11 11 9 10 11 12 13 15 16 16
12 14 15 13 17 21 19 15 14 14 16 16 15 14 13 13 13 11 11 10 12 12 12 11 12 12 11 11 12 12 13 14 14 14 14 11 11 13 13 14 15 16 17
17 19 19 20 24 26 25 19 15 16 18 17 15 13 12 13 13 13 13 13 15 15 14 13 14 14 13 11 11 13 16 17 18 18 18 16 13 13 15 17 16 17 17
21 19 19 23 26 26 27 25 21 19 19 18 16 15 14 13 14 14 16 17 18 18 16 14 13 13 14 14 13 14 18 19 19 20 21 20 17 15 15 17 19 19 18
15 16 20 23 25 27 28 28 29 22 20 20 19 19 16 15 15 16 19 20 19 18 17 14 11 11 13 14 16 17 19 21 20 20 21 22 20 18 17 18 19 20 21
19 20 23 27 31 32 30 27 26 21 20 22 21 18 18 18 18 18 18 21 20 19 18 18 18 16 14 15 17 19 19 20 20 21 20 20 20 21 20 20 21 21 22
21 20 23 29 34 35 34 33 28 23 23 22 20 18 17 17 16 17 18 21 22 20 19 20 21 19 17 17 19 20 18 19 20 21 21 21 21 21 21 21 21 20 20
23 23 26 32 36 36 37 42 37 32 31 25 20 20 19 19 20 21 22 23 23 21 21 19 21 20 19 19 19 19 19 18 21 22 23 22 21 21 21 21 21 21 21
29 31 31 34 37 37 40 40 36 32 34 29 23 23 21 22 24 25 27 26 24 22 23 24 25 25 23 21 21 20 21 20 22 22 22 21 21 21 22 23 23 23 23
29 34 38 40 43 40 40 42 38 35 35 31 27 28 27 26 26 24 30 26 25 24 23 27 29 28 26 22 21 21 22 21 23 22 20 19 20 21 23 25 25 24 23
35 38 40 40 41 41 45 47 42 41 41 38 32 30 28 33 32 27 29 25 27 27 27 29 30 29 26 22 21 23 24 24 23 23 21 20 21 23 24 25 25 25 25
39 42 44 45 43 45 44 49 50 47 47 41 36 35 33 34 35 34 33 26 28 29 30 29 29 29 26 25 25 23 23 23 23 21 21 22 23 24 25 25 26 25 24
40 43 46 49 49 53 51 50 57 54 52 46 38 37 39 41 41 36 31 28 28 29 30 29 28 30 31 29 28 26 24 22 23 23 22 22 24 25 24 25 24 22 22
37 40 45 49 53 53 51 55 45 54 53 49 44 48 44 37 31 33 30 29 28 29 31 33 31 32 34 33 31 29 27 23 22 24 22 22 23 23 23 22 22 21 20
37 39 40 40 41 42 41 46 39 45 44 47 42 45 39 40 36 31 30 30 30 30 32 35 35 35 36 36 34 31 28 25 24 24 23 22 22 21 21 21 20 19 15
Wind_Direction
79 79 88 95 99 99 95 89 81 78 80 83 83 81 79 76 70 68 69 65 61 60 58 49 44 47 56 75 7 3 12 345 331 21 320 309 317 327 329 323 315 350 52
75 74 74 80 87 90 90 87 85 82 78 78 77 76 73 67 62 60 60 62 63 63 65 61 48 44 43 40 9 357 4 13 27 29 345 319 319 314 313 314 293 277 339
67 71 71 71 73 73 75 77 78 78 77 77 75 71 69 63 57 55 57 60 62 65 72 73 65 53 48 44 34 18 360 51 49 4 352 331 316 308 306 316 314 280 268
58 61 67 66 67 68 69 70 71 73 72 70 68 66 65 60 56 54 50 50 55 61 69 75 77 72 65 59 50 19 342 328 304 303 328 335 322 311 302 312 326 306 277
52 45 58 62 62 64 64 64 63 65 66 65 67 68 66 62 54 48 44 42 43 46 51 55 61 63 64 69 61 30 333 321 310 303 306 310 310 300 290 292 305 312 296
58 56 60 57 57 59 58 59 59 58 59 59 57 56 54 55 60 57 47 42 43 43 42 49 45 47 47 52 39 3 329 320 308 305 315 319 312 302 293 286 284 300 292
228 60 58 47 40 40 43 42 48 51 52 56 57 53 51 50 51 56 52 40 37 37 36 41 43 37 43 42 4 317 320 324 306 299 313 315 303 294 291 288 281 284 291
288 311 347 13 17 22 24 20 22 31 35 42 51 51 42 39 33 32 31 30 26 19 15 20 29 21 13 360 326 295 298 308 298 292 298 301 299 296 292 290 286 281 288
296 311 333 341 343 354 359 354 346 347 355 1 8 24 27 17 359 356 1 6 9 5 0 358 8 3 349 332 318 309 303 299 298 293 290 298 309 307 301 289 279 294 301
295 302 320 325 325 332 333 330 326 323 320 320 323 330 336 335 320 319 329 337 347 348 344 336 330 328 322 314 303 301 301 289 286 292 295 302 312 320 327 301 282 309 304
298 303 317 321 322 328 327 322 315 311 305 301 296 299 310 312 308 307 313 319 322 326 327 313 306 316 312 301 294 288 290 289 284 289 295 303 310 310 311 302 291 298 297
299 294 305 315 313 316 321 322 313 303 296 293 288 284 289 298 304 306 304 309 304 309 315 307 302 308 313 311 302 287 284 289 291 289 291 299 307 307 306 301 296 297 297
297 282 285 304 309 311 311 318 318 307 294 291 288 280 279 285 296 299 301 305 302 304 302 302 301 303 310 315 311 299 297 299 294 291 291 290 296 306 305 299 293 289 291
276 278 275 276 291 303 306 314 321 318 301 288 285 279 274 278 287 295 301 303 299 295 292 294 294 298 302 306 310 303 299 297 296 292 291 289 286 294 301 297 291 288 286
263 257 252 260 281 291 294 299 307 310 300 286 275 274 277 277 282 290 293 295 290 286 287 291 295 303 311 315 317 315 308 300 297 293 290 286 282 281 286 291 288 283 282
243 242 247 257 273 285 286 286 291 294 288 278 272 279 288 294 296 298 297 296 292 291 290 287 290 299 307 311 314 317 315 305 298 297 295 288 281 282 286 288 282 277 278
257 255 252 250 265 275 273 276 282 277 276 276 277 281 290 295 297 297 295 296 295 292 288 287 293 299 303 304 304 308 310 309 306 296 292 287 284 284 287 291 287 277 272
262 258 253 256 263 267 270 268 261 266 269 270 271 274 276 278 284 286 287 287 286 286 285 286 290 294 297 301 300 302 304 309 309 302 295 290 289 289 290 295 291 282 273
259 258 252 256 259 260 267 273 264 257 260 256 255 262 267 272 274 276 279 278 276 276 278 282 287 293 298 299 296 294 296 304 305 302 298 295 294 292 293 295 289 282 275
259 256 252 254 257 259 265 272 269 260 261 259 257 267 274 274 272 270 273 273 272 270 274 281 288 293 295 295 294 293 294 297 299 301 299 296 295 291 291 291 287 281 276
245 248 248 251 253 256 260 261 260 262 264 262 263 264 268 273 274 273 272 269 269 269 271 280 287 290 291 292 291 291 291 293 296 297 296 291 289 286 288 289 288 285 279
246 246 248 253 257 255 255 255 251 258 260 259 260 262 269 272 266 266 270 270 271 272 275 280 286 287 287 290 290 290 291 293 293 296 298 295 291 291 290 286 286 287 281
255 252 254 256 255 253 253 253 242 247 257 255 255 261 269 270 261 260 265 267 268 271 277 282 284 285 285 288 289 290 289 290 291 293 296 297 295 293 290 282 279 284 285
255 256 261 262 260 256 254 255 244 239 242 239 246 257 261 268 267 262 259 260 264 270 275 280 285 288 288 290 290 289 285 283 289 294 295 294 292 291 287 280 276 280 281
262 261 265 266 266 268 265 259 249 225 226 240 243 252 259 262 255 245 250 257 263 269 274 277 281 284 286 288 289 288 285 281 284 293 296 293 291 292 286 281 284 282 273
267 261 266 270 274 280 277 264 242 217 223 248 250 253 254 263 261 244 254 263 267 270 274 277 280 283 283 284 285 284 281 277 280 287 290 291 290 289 284 284 287 281 272
Height
5914 5914 5912 5911 5911 5911 5909 5909 5911 5912 5912 5912 5912 5912 5912 5913 5913 5912 5911 5910 5910 5910 5910 5909 5908 5908 5908 5907 5908 5909 5909 5910 5909 5909 5910 5910 5909 5909 5908 5908 5907 5907 5906
5917 5917 5916 5915 5914 5913 5911 5911 5912 5914 5915 5915 5915 5914 5914 5914 5913 5913 5912 5911 5911 5911 5911 5911 5910 5910 5910 5909 5909 5909 5910 5910 5910 5909 5909 5909 5909 5908 5908 5907 5907 5907 5906
5920 5919 5918 5918 5918 5916 5914 5913 5914 5916 5916 5916 5917 5917 5916 5915 5915 5915 5914 5913 5912 5912 5911 5911 5911 5911 5911 5910 5910 5910 5909 5909 5909 5909 5908 5908 5908 5907 5907 5906 5906 5906 5906
5922 5922 5920 5920 5920 5919 5917 5916 5916 5916 5917 5918 5919 5919 5919 5918 5917 5916 5915 5914 5913 5912 5912 5911 5910 5911 5911 5911 5911 5910 5910 5909 5909 5909 5909 5908 5907 5907 5906 5905 5905 5905 5905
5923 5924 5923 5922 5922 5921 5920 5919 5918 5918 5918 5918 5918 5919 5919 5919 5918 5917 5916 5916 5915 5914 5913 5913 5912 5911 5911 5911 5911 5910 5910 5910 5910 5909 5909 5908 5907 5906 5905 5904 5904 5904 5904
5926 5925 5925 5924 5924 5922 5921 5921 5920 5920 5920 5920 5920 5920 5920 5920 5918 5918 5917 5916 5915 5915 5915 5914 5913 5912 5911 5910 5910 5910 5910 5910 5909 5908 5908 5907 5906 5905 5904 5903 5902 5902 5902
5928 5927 5926 5926 5925 5924 5924 5924 5922 5922 5922 5922 5922 5922 5922 5922 5921 5919 5917 5916 5916 5915 5915 5914 5913 5912 5911 5910 5910 5909 5909 5909 5908 5907 5906 5905 5905 5903 5903 5901 5901 5901 5900
5928 5929 5927 5926 5926 5926 5925 5926 5925 5923 5923 5923 5923 5923 5922 5921 5921 5920 5918 5916 5916 5915 5915 5914 5913 5913 5912 5911 5910 5909 5908 5908 5907 5906 5905 5904 5903 5902 5901 5900 5899 5898 5898
5928 5928 5928 5927 5927 5926 5926 5925 5926 5924 5923 5924 5924 5923 5922 5921 5919 5919 5918 5917 5916 5915 5915 5914 5914 5913 5912 5910 5909 5908 5907 5907 5906 5905 5904 5903 5902 5901 5899 5898 5897 5896 5895
5928 5927 5926 5927 5927 5926 5925 5925 5925 5925 5924 5923 5923 5923 5922 5921 5920 5919 5918 5917 5916 5915 5914 5914 5913 5912 5911 5910 5909 5908 5906 5905 5903 5902 5902 5901 5900 5899 5897 5897 5896 5894 5893
5927 5926 5925 5924 5925 5925 5924 5923 5923 5923 5923 5922 5921 5921 5921 5920 5920 5918 5918 5916 5915 5913 5912 5912 5912 5910 5909 5908 5907 5906 5905 5903 5901 5900 5900 5899 5899 5897 5896 5894 5893 5892 5890
5925 5925 5925 5923 5924 5923 5921 5921 5921 5920 5920 5919 5918 5919 5919 5918 5917 5916 5915 5914 5913 5911 5910 5910 5910 5909 5907 5907 5906 5905 5904 5902 5901 5900 5898 5897 5895 5895 5894 5892 5890 5889 5888
5924 5923 5923 5920 5922 5921 5919 5918 5918 5917 5917 5917 5915 5915 5915 5914 5914 5913 5912 5912 5912 5910 5908 5907 5908 5908 5907 5906 5906 5905 5904 5902 5900 5898 5896 5895 5893 5892 5891 5890 5887 5886 5885
5921 5920 5919 5918 5917 5916 5915 5914 5915 5914 5915 5914 5912 5912 5912 5912 5911 5910 5910 5909 5909 5908 5906 5904 5904 5905 5904 5902 5902 5903 5902 5900 5898 5896 5894 5892 5890 5889 5888 5886 5885 5883 5881
5915 5915 5915 5914 5912 5912 5912 5910 5910 5910 5911 5911 5909 5908 5908 5908 5908 5907 5906 5905 5904 5903 5902 5901 5901 5902 5901 5900 5900 5899 5898 5897 5895 5893 5890 5889 5887 5885 5884 5882 5879 5878 5877
5909 5909 5909 5907 5907 5906 5908 5908 5907 5906 5906 5907 5906 5905 5904 5905 5905 5905 5904 5902 5901 5900 5900 5900 5899 5899 5899 5898 5897 5896 5894 5893 5892 5890 5887 5885 5883 5882 5880 5878 5876 5873 5873
5904 5903 5901 5901 5901 5901 5902 5903 5902 5901 5900 5901 5901 5900 5900 5900 5900 5900 5900 5899 5898 5897 5897 5897 5896 5895 5894 5893 5892 5891 5889 5889 5889 5886 5883 5881 5879 5878 5876 5874 5872 5869 5868
5899 5897 5895 5894 5893 5893 5894 5894 5895 5895 5895 5896 5896 5895 5895 5896 5895 5895 5895 5895 5895 5893 5893 5893 5892 5891 5890 5888 5887 5886 5885 5883 5882 5882 5880 5878 5875 5873 5871 5869 5867 5865 5863
5891 5889 5887 5885 5884 5884 5885 5885 5886 5886 5887 5889 5889 5889 5890 5891 5891 5891 5891 5890 5891 5890 5889 5889 5889 5887 5886 5885 5884 5882 5880 5879 5878 5877 5876 5874 5872 5869 5867 5865 5863 5861 5860
5883 5881 5878 5877 5875 5875 5876 5877 5878 5877 5879 5882 5883 5883 5884 5885 5886 5886 5886 5885 5886 5885 5885 5885 5886 5884 5882 5882 5880 5878 5877 5875 5874 5873 5872 5870 5868 5866 5864 5861 5859 5857 5856
5875 5874 5871 5869 5866 5865 5867 5870 5871 5871 5872 5874 5876 5878 5879 5880 5880 5878 5880 5879 5880 5880 5880 5880 5880 5879 5878 5877 5876 5873 5873 5872 5870 5869 5868 5866 5864 5863 5861 5858 5856 5854 5853
5868 5867 5864 5861 5858 5858 5857 5858 5861 5860 5861 5864 5866 5869 5871 5873 5873 5871 5872 5872 5872 5872 5874 5874 5874 5874 5873 5871 5870 5868 5867 5867 5865 5864 5862 5861 5860 5858 5856 5854 5852 5849 5848
5859 5859 5857 5852 5848 5845 5844 5845 5845 5847 5848 5852 5854 5858 5861 5863 5865 5864 5865 5865 5867 5866 5866 5867 5866 5866 5866 5865 5864 5863 5862 5861 5859 5858 5857 5855 5854 5852 5850 5848 5846 5844 5844
5848 5847 5844 5840 5838 5834 5834 5831 5825 5826 5834 5837 5843 5846 5850 5852 5853 5856 5857 5859 5860 5860 5860 5859 5860 5860 5858 5858 5857 5857 5857 5856 5853 5852 5852 5849 5847 5846 5844 5842 5840 5839 5839
5834 5833 5830 5828 5824 5823 5828 5831 5828 5815 5821 5826 5831 5835 5841 5843 5843 5844 5845 5849 5851 5853 5853 5853 5854 5854 5852 5850 5850 5849 5849 5849 5847 5846 5845 5843 5841 5840 5839 5837 5835 5834 5834
5824 5821 5819 5816 5815 5812 5816 5820 5820 5808 5811 5816 5823 5827 5834 5837 5839 5839 5840 5843 5843 5845 5846 5846 5846 5846 5844 5843 5842 5842 5843 5843 5842 5841 5839 5837 5835 5835 5835 5833 5831 5829 5828